Regional Weather Roundup
Issued by NWS Charleston, SC

Current Version | Previous Version | Graphics & Text | Print | Product List | Glossary On
Versions: 1 2 3 4 5 6 7 8 9 10 11 12 13 14 15 16 17 18 19 20 21 22 23 24 25 26 27 28 29 30 31 32 33 34 35 36 37 38 39 40 41 42 43 44 45 46 47 48 49 50
000
ASUS42 KCHS 021627
RWRCHS

REGIONAL WEATHER ROUNDUP
NATIONAL WEATHER SERVICE CHARLESTON SC
1200 PM EDT THU JUL 02 2015

NOTE: "FAIR" INDICATES FEW OR NO CLOUDS BELOW 12,000 FEET WITH NO
SIGNIFICANT WEATHER AND/OR OBSTRUCTIONS TO VISIBILITY.

NOT ALL STATIONS ARE QUALITY CONTROLLED BY THE NATIONAL
WEATHER SERVICE. USE DATA WITH CAUTION...ESPECIALLY
DEWPOINT OBSERVATIONS.

SCZ027-030-031-034>040-042>050-021700-
...SOUTHEAST SOUTH CAROLINA...

CITY           SKY/WX    TMP DP  RH WIND       PRES   REMARKS
N CHARLESTON   PTSUNNY   87  72  60 W7        30.02F HX  93
WATERFRONT PAR   N/A     85  73  67 SW7       30.00S HX  92
MOUNT PLEASANT FAIR      90  72  55 W6        30.01F HX  96
JOHNS ISLAND   PTSUNNY   90  73  58 SW7       30.02S HX  98
PINOPOLIS      NOT AVBL
MONCKS CORNER  FAIR      86  72  62 SW7       30.02R HX  92
SUMMERVILLE    FAIR      84  73  70 SW3       30.03S HX  91
BEAUFORT MCAS  PTSUNNY   87  74  64 W9        30.03S HX  95
BEAUFORT ARPT  FAIR      90  75  62 W9G21     30.03R HX 100
HILTON HEAD IS MOSUNNY   91  73  55 SW12G18   30.05S HX 100
WALTERBORO     CLOUDY    82  68  61 SW7       30.03F
ALLENDALE      FAIR      84  72  65 VRB6      30.02F

...SOUTHERN MIDLANDS AND PEE DEE...

CITY           SKY/WX    TMP DP  RH WIND       PRES   REMARKS
GEORGETOWN     NOT AVBL
KINGSTREE      NOT AVBL
ORANGEBURG     PTSUNNY   82  67  60 SW13      30.02F
BARNWELL       FAIR      84  72  65 W8        30.03S
AIKEN          NOT AVBL
MANNING        FAIR      86  64  48 SW10G17   30.01S
COLUMBIA       MOSUNNY   85  67  54 SW12G20   29.99F
SUMTER         PTSUNNY   83  69  61 SW12      29.99R
FLORENCE       MOSUNNY   85  69  58 SW13      29.98S
MYRTLE BEACH   MOSUNNY   88  66  48 W13G18    30.01S HX  90
N MYRTLE BEACH MOSUNNY   87  68  52 W10       29.98F HX  90

$$

GAZ063-065-086>088-099>101-113>116-118-119-134>141-150-021700-
...SOUTHEAST GEORGIA...

CITY           SKY/WX    TMP DP  RH WIND       PRES   REMARKS
SAVANNAH ARPT  PTSUNNY   90  69  50 W13       30.04S HX  94
HUNTER AAF     MOSUNNY   89  74  60 SW9       30.02S HX  98
FORT STEWART   PTSUNNY   87  71  58 SW13      30.03S HX  93
STATESBORO     NOT AVBL
SYLVANIA       NOT AVBL
CLAXTON        NOT AVBL

...CSRA...CENTRAL AND FAR SOUTHEAST GEORGIA...

CITY           SKY/WX    TMP DP  RH WIND       PRES   REMARKS
THOMSON        NOT AVBL
AUGUSTA-BUSH   SUNNY     86  68  54 SW9       30.01F
AUGUSTA-DANIEL SUNNY     87  66  49 SW8G18    30.02F
SWAINSBORO     NOT AVBL
VIDALIA        NOT AVBL
EASTMAN        NOT AVBL
HAZLEHURST     NOT AVBL
ALMA           PTSUNNY   83  69  62 W9        30.07S
WAYCROSS       NOT AVBL
JESUP          NOT AVBL
BAXLEY         NOT AVBL
BRUNSWICK      NOT AVBL
SAINT SIMONS   SUNNY     89  72  56 W10       30.07R HX  96

$$

SCZ027-028-034-036>038-045-046-048>050-GAZ119-141-021700-
...LAKE AND SUPPLEMENTAL COASTAL OBSERVATIONS...

STATION/POSITION TIME  TEMP    WIND        PRES    WAVE   SWELL
                       AIR SEA DIR/SP/G            HT/PER HT/PER/DIR
                 (UTC) (F)     (DEG/KT/KT) (MB)    (FT/S) (FT/S/D)
UPR LAKE MARION  NOT AVBL
WINYAH BAY       1500   84     260/  8     1015.0
LAKE MURRAY      1500   80     240/ 10/ 14 1015.2S
ACE BASIN NERRS  1545   88     150/  4     1017.0S
FORT PULASKI     1500   85 83  270/ 11/ 13 1017.7F
SAPELO ISLAND    1600   88     250/ 12     1018.0S

$$

ANZ835-935-AMZ111-154-330-350-352-354-370-450-454-472-021700-
...C-MAN AND BUOY OBSERVATIONS...

STATION/POSITION TIME  TEMP    WIND        PRES    WAVE   SWELL
                       AIR SEA DIR/SP/G            HT/PER HT/PER/DIR
                 (UTC) (F)     (DEG/KT/KT) (MB)    (FT/S) (FT/S/D)
BUOY 41004       1550   81 81  240/ 14/ 16 1016.5R   4/ 9   2/ 9
BUOY 41008       1550   79 79  210/ 10/ 12 1018.2R   2/ 5   2/130/ 8
FOLLY BEACH CMAN 1600   83     220/ 11/ 12 1016.8F
CAPERS NEARSHORE 1508   82     250/ 12/ 14 1017.1R
FRIPP NEARSHORE  1500   83     260/ 10/ 10 1016.9R


STATION/POSITION TIME  TEMP    WIND        PRES    WAVE   SWELL
                       AIR SEA DIR/SP/G            HT/PER HT/PER/DIR
                 (UTC) (F)     (DEG/KT/KT) (MB)    (FT/S) (FT/S/D)
5E ST. MARYS GA  1521      78                N/A     2/ 9
FRYING PAN BUOY  1550   81 80  240/ 17/ 21 1016.3R   4/ 6   2/120/ 9
BUOY 41025       1550   81 83  230/ 16/ 17 1014.2S   4/ 6   2/190/ 7
CAPE LOOKOUT NC  1600   83     240/ 13/ 16 1014.3R
BUOY 41002       1550   74 80  270/ 16/ 19 1020.7R   6/ 7
BUOY 41010       1520   84 84  210/ 12/ 14 1020.5R
ST AUGUSTINE FL  1600   87 73  250/  9/ 11 1020.1R


$$



USA.gov is the U.S. government's official web portal to all federal, state and local government web resources and services.